Location: Poughquag
(41.6090°N, 73.6820°W)
Time: 14:14:57
(UTC-04:00)

Altair - Pass Details

Date: 29 May 2020
Orbit: 1501 x 1683 km, 47.2° (Epoch: 05 July)

Event Time Altitude Azimuth Distance (km) Brightness Sun altitude
Rises 01:35:06 0° 266° (W) 4,888 10.0 -25.9°
Reaches altitude 10° 01:38:17 10° 270° (W) 3,917 9.5 -25.8°
Maximum altitude 01:48:20 66° 352° (N) 1,810 8.0 -25.4°
Drops below altitude 10° 01:58:28 10° 74° (ENE) 3,935 10.0 -24.9°
Sets 02:01:40 0° 78° (ENE) 4,912 10.5 -24.7°
